BLOCK DM-SL DEB, 46091

Orbit data source: Space-Track

BLOCK DM-SL DEB, 46091 is space debris in GEO originally from a launch on Tue, 24 Dec 2019 UTC launched from the Tyuratam Missile And Space Complex (TTMTR). Debris objects in space refer to the collection of defunct objects orbiting the Earth. Examples of debris include non-operational satellites, rocket bodies, and fragments generated from explosions, collisions, or faulty payload assembly.

Not visible in the next 10 days
Identifier
46091, 2019-095E
Orbit
GEO
Country
Flag of CISCIS
Related business
Manufacturer
Lavochkin
Mission
Spacecraft
Bus & Motor
Unknown
Mass
Unknown
Launch date (UTC)
2019-12-24 (7 years ago)
Launch vehicle
Unknown
Launch site
Tyuratam Missile And Space Complex (TTMTR)
Object type
Payload
Rocket body
Debris
Shape & HBR
Unknown shape, 1.1 m
Radar Cross Section
Medium (>0.1 m² and <1 m²)

Expand to show TLE details & history
Last TLE update: 4 days ago

TLE from 4 days ago
0 BLOCK DM-SL DEB
1 46091U 19095E   26264.36289549 -.00000100  00000-0  00000-0 0  9992
2 46091   5.5545  72.0920 0057604 192.3228 167.7588  1.03275664 24737
Epoch: 2026-09-21T08:42Z
TLE epoch observation values (Epoch: 2026-09-21T08:42:34.170Z)
Latitude
0.00002°
Longitude
-58.59417°
Altitude
35,196.233 km
Speed
3.088 km/s
True Right ascension
04h 49m 10s
True Declination
0° 00' 00"
Sunlit
Object was in daylight at epoch
Visualization orbit readout
Latitude
Unknown
Longitude
Unknown
Altitude
Unknown
Speed
Unknown
Apparent Right ascension
Unknown
Apparent Declination
Unknown
Sunlit
N/A
Visualization observer readout
Local Sidereal Time
14:17:13
Azimuth
Unknown
Elevation
Unknown
Doppler factor
Unknown
Orbital elements
Apogee altitude
35,204.211 km
Perigee altitude
34,727.893 km
Semi-major axis
41,344.189 km
Eccentricity
0.00576
Inclination
5.5545°
RAAN
72.092°
Arg. of periapsis
192.3228°
True anomaly
167.89778°
Mean anomaly
167.7588°
Eccentric anomaly
167.82839°
Mean motion
0.25818 °/min
Orbital period
1,394.38 mins
BSTAR
0
Loading maneuver chart data...
Computing Atmospheric mass density...
Loading historical data...
Loading historical data...
Loading historical data...
Loading historical data...
Loading historical data...
Loading historical data...
Loading historical data...
Other satellites on launch #95 in the year 2019 (2019-12-24 UTC)

Documentation

Showing up to 5 results
|